Back to catalog

CZ-3C DEB

LostGTO
NORAD 44527·DEBRIS·🇨🇳 China

Launched Oct 31, 2010 from Xichang Satellite Launch Center

Loading…

TLE

StaleSource: Space-Track

Epoch: May 30, 2026, 19:19 UTC

1 44527U 10057BM  26150.80542836 -.00000159  00000-0  54309-3 0  9995
2 44527  20.4529  69.7559 7179733 213.8543  66.5398  2.23731052 78029

Track CZ-3C DEB in real time with AllMySat

Download on the App Store